Miscellaneous Local Product
Issued by NWS North Platte, NE

Home | Current Version | Previous Version | Text Only | Print | Product List | Glossary On
Versions: 1 2 3 4 5 6 7 8 9 10 11 12 13 14 15 16 17 18 19 20 21 22 23 24 25 26 27 28 29 30 31 32 33 34 35 36 37 38 39 40 41 42 43 44 45 46 47 48 49 50
000
AXUS43 KLBF 062210
MISLBF


WESTERN AND NORTH CENTRAL NEBRASKA HOURLY WEATHER ROUNDUP
NATIONAL WEATHER SERVICE NORTH PLATTE NE
500 PM CDT WED MAY 06 2015

***STATIONS NOT REPORTING VARIABLES SUCH AS SKY/WEATHER OR
PRESSURE ARE PROVIDED BY THE NEBRASKA DEPARTMENT OF
ROADS...RAWS...AND APRS NETWORKS...AND ARE NOT UNDER
NATIONAL WEATHER SERVICE QUALITY CONTROL***

...OBSERVATIONS IN AND NEAR THE EASTERN PANHANDLE OF NEBRASKA...

CITY           SKY/WX    TMP DP  RH WIND       PRES   REMARKS
PINE RIDGE     CLOUDY    63  54  72 SE8       29.58F
CHADRON        PTSUNNY   65  54  67 W13       29.58F
ALLIANCE       CLOUDY    62  52  69 SE14      29.60F
SIDNEY         LGT RAIN  56  53  90 E6        29.62F FOG
WHITECLAY        N/A     62  49  60 S15         N/A
CRESCENT LAKE    N/A     62  49  62 S9          N/A
BIG SPRINGS      N/A     62  55  78 SE12        N/A
$$

...OBSERVATIONS IN NORTH CENTRAL NEBRASKA...

CITY           SKY/WX    TMP DP  RH WIND       PRES   REMARKS
VALENTINE      LGT RAIN  59  56  89 S3        29.62F
THEDFORD       CLOUDY    61  58  90 S3        29.61F
AINSWORTH      PTSUNNY   63  58  83 S3        29.61F
O`NEILL        PTSUNNY   71  60  67 S20G26    29.64F
ORD            HVY RAIN  64  60  87 SE14G23   29.62F FOG
BROKEN BOW     LGT RAIN  71  58  63 S14G23    29.60F
BROWNLEE         N/A     65  58  77 S13         N/A
VALENTINE NWR    N/A     58  58  99 S9G22       N/A
SPRINGVIEW       N/A     66  60  82 SE9         N/A
HALSEY           N/A     62  59  89 S7          N/A
BREWSTER         N/A     74  57  54 S20         N/A
ROSE             N/A     70  60  72 E18         N/A
NEWPORT          N/A     70  59  67 S18         N/A
SARGENT          N/A     67  60  78 SE3         N/A
COMSTOCK         N/A     64  64 100 S12         N/A
EWING            N/A     67  63  86 SE7         N/A
$$

...OBSERVATIONS IN SOUTHWEST NEBRASKA AND FAR NORTHEAST COLORADO...

CITY           SKY/WX    TMP DP  RH WIND       PRES   REMARKS
WRAY           LGT RAIN N/A N/A N/A SW9G16    29.60S
IMPERIAL       PTSUNNY   61  53  75 S10       29.58F
OGALLALA       PTSUNNY   65  53  64 S12G17    29.58F
NORTH PLATTE   PTSUNNY   65  54  67 S12       29.58F
MCCOOK         MOSUNNY   69  53  56 SW14      29.57F
LEXINGTON      PTSUNNY   70  58  64 S12       29.58F
PAXTON           N/A     65  57  76 S13         N/A
SUTHERLAND       N/A     65  55  69 S12         N/A
GOTHENBURG       N/A     68  54  60 S8          N/A
CALLAWAY         N/A     67  60  79 S13         N/A
$$

...NORTH PLATTE AREA...

CITY           SKY/WX    TMP DP  RH WIND       PRES   REMARKS
AIRPORT        PTSUNNY   65  54  67 S12       29.58F
$$

...SOME WEATHER OBSERVATIONS FROM AROUND THE REGION...

CITY           SKY/WX    TMP DP  RH WIND       PRES   REMARKS
DENVER         CLOUDY    64  46  52 CALM      29.69S
LARAMIE        TSTM      44  40  85 NW3       29.77R FOG
CHEYENNE       CLOUDY    54  46  74 N15G21    29.71R
SCOTTSBLUFF    LGT RAIN  58  54  86 N10       29.62S
RAPID CITY     TSTM      60  56  86 E13       29.59F
PIERRE         LGT RAIN  65  58  78 SE14      29.58F
WINNER         LGT RAIN  65  55  70 S23       29.62S
SIOUX FALLS    CLOUDY    68  60  75 S23G41    29.73S
OMAHA          CLOUDY    71  61  70 SE21G32   29.78F
GRAND ISLAND   LGT RAIN  64  62  93 SE14      29.66F FOG
KANSAS CITY    CLOUDY    66  61  84 SE14      29.90F
WICHITA        PTSUNNY   74  66  76 SE30G36   29.73F
HAYS           PTSUNNY   79  57  47 SW32G39   29.58S
LIBERAL        MOSUNNY   81  52  36 SW23G31   29.66F
GOODLAND       PTSUNNY   62  57  83 S17       29.62F
$$



USA.gov is the U.S. government's official web portal to all federal, state and local government web resources and services.